Location: Mountain Grove
(34.0887°N, 86.6172°W)
Time: 20:00:13
(UTC+00:00)

Cosmos 2369 Rocket - Pass Details

Date: 14 July 2020
Orbit: 830 x 851 km, 71.0° (Epoch: 08 August)

Event Time Altitude Azimuth Distance (km) Brightness Sun altitude
Rises 04:25:54 0° 346° (NNW) 3,380 6.5 -30.6°
Reaches altitude 10° 04:28:28 10° 354° (N) 2,445 5.4 -30.8°
Enters shadow 04:32:57 40° 42° (NE) 1,223 3.1 -31.2°
